Flag for U.S.A. Weather past 2 weeks in Visalia, California, U.S.A.

Now
70 °F

Sunny.


Feels Like: 70 °F
Forecast: 60 / 89 °F
Wind: No wind

Location: Visalia Municipal

Current Time: Sep 22, 2014 at 10:06:33 AM

Latest Report: Sep 22, 2014 at 9:35 AM


Visibility: 10 mi

Pressure: 30.02 "Hg

Humidity: 69%

Dew point: 59 °F

Location of VisaliaLocation

Historic Weather in Visalia — Graph

°F

Visalia temperature yesterday

Maximum temperature yesterday: 88 °F (at 2:35 PM)
Minimum temperature yesterday: 63 °F (at 5:35 AM)
Average temperature yesterday: 74 °F

Past Weeks' High & Low Weather Summary

 TemperatureHumidityPressure
High100 °F (Sep 13, 3:55 PM)77% (Sep 9, 6:15 AM)30.02 "Hg (Sep 9, 6:15 AM)
Low55 °F (Sep 9, 6:15 AM)16% (Sep 12, 5:55 PM)29.68 "Hg (Sep 7, 6:55 PM)
Average78 °F49%29.83 "Hg
* Reported Sep 7 8:15 AM — Sep 22 8:55 AM, Visalia, Weather by CustomWeather, © 2014

Note: Actual official high and low records may vary slightly from our data, if they occured in-between our weather recording intervals... More about our weather records

Advertising

Visalia weather history for previous 24 hours

 ConditionsComfort  
Time TempWeatherWind HumidityBarometerVisibility
8:55 AM
Sep 22
66 °FSunny.No wind73%30.02 "Hg10 mi
8:35 AM64 °FSunny.No wind73%30.01 "Hg9 mi
8:15 AM64 °FSunny.No wind73%30.01 "Hg10 mi
7:55 AM63 °FSunny.No wind77%30.01 "Hg10 mi
7:35 AM63 °FClear.No wind77%30.01 "Hg10 mi
7:15 AM61 °FClear.No wind77%30.00 "Hg10 mi
6:55 AM61 °FClear.No wind77%29.99 "Hg10 mi
6:35 AM61 °FClear.No wind72%29.99 "Hg10 mi
6:15 AM61 °FClear.No wind77%29.98 "Hg10 mi
5:55 AM61 °FClear.No wind77%29.98 "Hg10 mi
5:35 AM61 °FClear.3 mph77%29.98 "Hg10 mi
5:15 AM61 °FClear.3 mph77%29.98 "Hg10 mi
4:55 AM61 °FClear.5 mph77%29.97 "Hg10 mi
4:35 AM63 °FClear.No wind73%29.97 "Hg10 mi
3:55 AM64 °FClear.3 mph73%29.96 "Hg10 mi
3:35 AM64 °FClear.No wind73%29.96 "Hg10 mi
3:15 AM64 °FClear.7 mph73%29.96 "Hg10 mi
2:55 AM64 °FClear.7 mph73%29.96 "Hg10 mi
2:35 AM66 °FClear.7 mph68%29.96 "Hg10 mi
2:15 AM66 °FClear.7 mph68%29.96 "Hg10 mi
1:55 AM66 °FClear.7 mph68%29.97 "Hg10 mi
1:35 AM66 °FClear.9 mph68%29.96 "Hg10 mi
1:15 AM68 °FClear.9 mph64%29.96 "Hg10 mi
12:55 AM70 °FClear.7 mph60%29.95 "Hg10 mi
12:35 AM70 °FClear.8 mph64%29.95 "Hg10 mi
12:15 AM70 °FClear.7 mph60%29.95 "Hg10 mi
11:55 PM
Sep 21
70 °FClear.8 mph60%29.95 "Hg10 mi
11:35 PM72 °FClear.7 mph61%29.94 "Hg10 mi
10:55 PM73 °FClear.5 mph57%29.94 "Hg10 mi
10:35 PM72 °FClear.No wind61%29.94 "Hg10 mi
10:15 PM72 °FClear.6 mph61%29.94 "Hg10 mi
9:55 PM73 °FClear.7 mph57%29.93 "Hg10 mi
9:35 PM75 °FClear.8 mph54%29.93 "Hg10 mi
9:15 PM75 °FClear.6 mph50%29.92 "Hg10 mi
8:55 PM75 °FClear.7 mph50%29.92 "Hg10 mi
8:35 PM77 °FClear.8 mph51%29.92 "Hg10 mi
8:15 PM79 °FClear.7 mph45%29.90 "Hg10 mi
7:55 PM79 °FSunny.8 mph48%29.89 "Hg10 mi
7:35 PM81 °FSunny.7 mph45%29.88 "Hg10 mi
7:15 PM81 °FSunny.6 mph45%29.88 "Hg10 mi
6:55 PM82 °FSunny.6 mph42%29.88 "Hg10 mi
6:35 PM82 °FSunny.6 mph42%29.88 "Hg10 mi
6:15 PM84 °FSunny.7 mph40%29.88 "Hg10 mi
5:55 PM84 °FSunny.9 mph40%29.88 "Hg10 mi
5:35 PM84 °FSunny.10 mph40%29.87 "Hg10 mi
5:15 PM86 °FSunny.9 mph38%29.87 "Hg10 mi
4:55 PM88 °FSunny.8 mph35%29.88 "Hg10 mi
4:35 PM88 °FSunny.9 mph35%29.88 "Hg10 mi
3:55 PM88 °FSunny.10 mph35%29.88 "Hg10 mi
3:35 PM88 °FSunny.5 mph35%29.89 "Hg10 mi
3:15 PM88 °FSunny.7 mph35%29.89 "Hg10 mi
2:55 PM88 °FSunny.9 mph35%29.90 "Hg10 mi
2:35 PM88 °FSunny.10 mph35%29.90 "Hg10 mi
2:15 PM86 °FSunny.6 mph38%29.92 "Hg10 mi
1:55 PM86 °FSunny.8 mph40%29.92 "Hg10 mi
1:35 PM84 °FSunny.8 mph43%29.93 "Hg10 mi
1:15 PM82 °FSunny.5 mph45%29.94 "Hg10 mi
12:55 PM82 °FSunny.6 mph42%29.95 "Hg10 mi
12:35 PM82 °FSunny.6 mph45%29.96 "Hg10 mi
12:15 PM81 °FSunny.7 mph45%29.96 "Hg10 mi
11:55 AM81 °FSunny.6 mph45%29.97 "Hg10 mi
11:35 AM79 °FSunny.8 mph48%29.97 "Hg10 mi
10:55 AM75 °FSunny.5 mph54%29.97 "Hg10 mi
10:35 AM73 °FSunny.5 mph57%29.98 "Hg10 mi
10:15 AM73 °FSunny.5 mph57%29.97 "Hg10 mi
Weather by CustomWeather, © 2014

See weather overviewHow to use our weather pages